Time,TemperatureF,DewpointF,PressureIn,WindDirection,WindDirectionDegrees,WindSpeedMPH,WindSpeedGustMPH,Humidity,HourlyPrecipIn,Conditions,Clouds,dailyrainin,SoftwareType,DateUTC
2013-01-25 00:00:00,14.6,6.6,30.45,East,88,0.0,0.0,70,0.00,,---,0.00,VWS V14.00,2013-01-25 05:00:00,
2013-01-25 00:01:00,14.6,6.6,30.45,ESE,102,0.0,2.0,70,0.00,,---,0.00,VWS V14.00,2013-01-25 05:01:00,
2013-01-25 00:03:00,14.7,6.7,30.45,ESE,102,0.0,2.0,70,0.00,,---,0.00,VWS V14.00,2013-01-25 05:03:00,
2013-01-25 00:08:00,14.1,6.1,30.44,ESE,102,0.0,2.0,70,0.00,,---,0.00,VWS V14.00,2013-01-25 05:08:00,
2013-01-25 00:13:00,13.9,6.6,30.44,ESE,115,0.0,4.0,72,0.00,,---,0.00,VWS V14.00,2013-01-25 05:13:00,
2013-01-25 00:18:00,14.2,6.5,30.45,ESE,115,0.0,4.0,71,0.00,,---,0.00,VWS V14.00,2013-01-25 05:18:00,
2013-01-25 00:23:00,14.1,6.4,30.44,SE,144,0.0,4.0,71,0.00,,---,0.00,VWS V14.00,2013-01-25 05:23:00,
2013-01-25 00:28:00,14.1,6.4,30.45,SE,145,0.0,0.0,71,0.00,,---,0.00,VWS V14.00,2013-01-25 05:28:00,
2013-01-25 00:33:00,13.8,6.2,30.46,SE,145,0.0,0.0,71,0.00,,---,0.00,VWS V14.00,2013-01-25 05:33:00,
2013-01-25 00:38:00,12.9,5.9,30.45,SE,145,0.0,0.0,73,0.00,,---,0.00,VWS V14.00,2013-01-25 05:38:00,
2013-01-25 00:43:00,12.6,6.2,30.44,SE,145,0.0,2.0,75,0.00,,---,0.00,VWS V14.00,2013-01-25 05:43:00,
2013-01-25 00:48:00,12.7,6.0,30.44,SE,146,0.0,5.0,74,0.00,,---,0.00,VWS V14.00,2013-01-25 05:48:00,
2013-01-25 00:53:00,12.6,5.9,30.44,SE,146,0.0,5.0,74,0.00,,---,0.00,VWS V14.00,2013-01-25 05:53:00,
2013-01-25 00:58:00,12.8,5.8,30.44,SE,146,0.0,0.0,73,0.00,,---,0.00,VWS V14.00,2013-01-25 05:58:00,
2013-01-25 01:03:00,13.0,6.3,30.44,SE,146,0.0,0.0,74,0.00,,---,0.00,VWS V14.00,2013-01-25 06:03:00,
2013-01-25 01:08:00,13.0,6.6,30.44,SE,146,0.0,0.0,75,0.00,,---,0.00,VWS V14.00,2013-01-25 06:08:00,
2013-01-25 01:13:00,12.9,6.5,30.43,SE,146,0.0,0.0,75,0.00,,---,0.00,VWS V14.00,2013-01-25 06:13:00,
2013-01-25 01:18:00,12.4,6.3,30.43,SE,146,0.0,0.0,76,0.00,,---,0.00,VWS V14.00,2013-01-25 06:18:00,
2013-01-25 01:23:00,12.6,6.8,30.43,SE,146,0.0,2.0,77,0.00,,---,0.00,VWS V14.00,2013-01-25 06:23:00,
2013-01-25 01:28:00,12.5,6.7,30.43,SE,146,0.0,0.0,77,0.00,,---,0.00,VWS V14.00,2013-01-25 06:28:00,
2013-01-25 01:33:00,12.3,6.5,30.44,SSE,147,1.0,2.0,77,0.00,,---,0.00,VWS V14.00,2013-01-25 06:33:00,
2013-01-25 01:38:00,12.6,6.8,30.43,SSE,147,0.0,2.0,77,0.00,,---,0.00,VWS V14.00,2013-01-25 06:38:00,
2013-01-25 01:43:00,12.7,6.9,30.43,SSE,147,0.0,2.0,77,0.00,,---,0.00,VWS V14.00,2013-01-25 06:43:00,
2013-01-25 01:48:00,12.8,7.0,30.42,SSE,147,0.0,2.0,77,0.00,,---,0.00,VWS V14.00,2013-01-25 06:48:00,
2013-01-25 01:53:00,12.7,6.9,30.42,SSE,147,0.0,2.0,77,0.00,,---,0.00,VWS V14.00,2013-01-25 06:53:00,
2013-01-25 01:58:00,12.8,7.2,30.42,SSE,147,0.0,1.0,78,0.00,,---,0.00,VWS V14.00,2013-01-25 06:58:00,
2013-01-25 02:03:00,13.0,7.4,30.42,SSE,147,0.0,2.0,78,0.00,,---,0.00,VWS V14.00,2013-01-25 07:03:00,
2013-01-25 02:08:00,13.1,7.5,30.42,SSE,147,0.0,2.0,78,0.00,,---,0.00,VWS V14.00,2013-01-25 07:08:00,
2013-01-25 02:13:00,13.4,7.8,30.42,SSW,196,3.0,5.0,78,0.00,,---,0.00,VWS V14.00,2013-01-25 07:13:00,
2013-01-25 02:18:00,13.5,7.7,30.42,SSW,192,2.0,6.0,77,0.00,,---,0.00,VWS V14.00,2013-01-25 07:18:00,
2013-01-25 02:23:00,13.7,7.6,30.42,SSW,192,1.0,6.0,76,0.00,,---,0.00,VWS V14.00,2013-01-25 07:23:00,
2013-01-25 02:28:00,13.9,7.8,30.42,South,187,0.0,0.0,76,0.00,,---,0.00,VWS V14.00,2013-01-25 07:28:00,
2013-01-25 02:33:00,14.1,7.9,30.42,South,187,0.0,3.0,76,0.00,,---,0.00,VWS V14.00,2013-01-25 07:33:00,
2013-01-25 02:38:00,14.3,7.8,30.41,South,185,1.0,3.0,75,0.00,,---,0.00,VWS V14.00,2013-01-25 07:38:00,
2013-01-25 02:43:00,14.2,7.7,30.41,South,178,0.0,5.0,75,0.00,,---,0.00,VWS V14.00,2013-01-25 07:43:00,
2013-01-25 02:48:00,14.3,7.8,30.41,South,178,0.0,5.0,75,0.00,,---,0.00,VWS V14.00,2013-01-25 07:48:00,
2013-01-25 02:53:00,14.3,7.8,30.41,South,178,0.0,5.0,75,0.00,,---,0.00,VWS V14.00,2013-01-25 07:53:00,
2013-01-25 02:58:00,14.3,7.8,30.40,South,178,0.0,0.0,75,0.00,,---,0.00,VWS V14.00,2013-01-25 07:58:00,
2013-01-25 03:03:00,14.3,7.6,30.42,South,178,0.0,0.0,74,0.00,,---,0.00,VWS V14.00,2013-01-25 08:03:00,
2013-01-25 03:08:00,14.3,7.6,30.41,South,178,0.0,0.0,74,0.00,,---,0.00,VWS V14.00,2013-01-25 08:08:00,
2013-01-25 03:13:00,14.4,7.6,30.41,South,178,0.0,0.0,74,0.00,,---,0.00,VWS V14.00,2013-01-25 08:13:00,
2013-01-25 03:18:00,14.4,7.6,30.41,South,178,0.0,4.0,74,0.00,,---,0.00,VWS V14.00,2013-01-25 08:18:00,
2013-01-25 03:23:00,14.5,7.4,30.40,South,180,0.0,4.0,73,0.00,,---,0.00,VWS V14.00,2013-01-25 08:23:00,
2013-01-25 03:28:00,14.6,7.8,30.40,South,180,0.0,0.0,74,0.00,,---,0.00,VWS V14.00,2013-01-25 08:28:00,
2013-01-25 03:33:00,14.7,7.9,30.40,South,180,2.0,2.0,74,0.00,,---,0.00,VWS V14.00,2013-01-25 08:33:00,
2013-01-25 03:38:00,14.8,8.0,30.40,SSW,194,1.0,4.0,74,0.00,,---,0.00,VWS V14.00,2013-01-25 08:38:00,
2013-01-25 03:43:00,14.8,8.3,30.41,SSW,194,0.0,4.0,75,0.00,,---,0.00,VWS V14.00,2013-01-25 08:43:00,
2013-01-25 03:48:00,14.8,8.3,30.40,SSW,194,0.0,4.0,75,0.00,,---,0.00,VWS V14.00,2013-01-25 08:48:00,
2013-01-25 03:53:00,14.8,8.3,30.40,SSW,193,1.0,4.0,75,0.00,,---,0.00,VWS V14.00,2013-01-25 08:53:00,
2013-01-25 03:58:00,14.8,8.0,30.40,South,187,2.0,3.0,74,0.00,,---,0.00,VWS V14.00,2013-01-25 08:58:00,
2013-01-25 04:03:00,14.8,8.0,30.40,South,187,0.0,4.0,74,0.00,,---,0.00,VWS V14.00,2013-01-25 09:03:00,
2013-01-25 04:08:00,14.9,8.1,30.40,South,187,0.0,4.0,74,0.00,,---,0.00,VWS V14.00,2013-01-25 09:08:00,
2013-01-25 04:13:00,14.9,8.1,30.39,South,188,0.0,4.0,74,0.00,,---,0.00,VWS V14.00,2013-01-25 09:13:00,
2013-01-25 04:18:00,14.8,8.0,30.40,South,188,0.0,4.0,74,0.00,,---,0.00,VWS V14.00,2013-01-25 09:18:00,
2013-01-25 04:23:00,14.8,8.0,30.40,South,188,0.0,4.0,74,0.00,,---,0.00,VWS V14.00,2013-01-25 09:23:00,
2013-01-25 04:28:00,14.8,8.0,30.40,South,188,0.0,0.0,74,0.00,,---,0.00,VWS V14.00,2013-01-25 09:28:00,
2013-01-25 04:33:00,14.8,8.0,30.40,South,188,0.0,0.0,74,0.00,,---,0.00,VWS V14.00,2013-01-25 09:33:00,
2013-01-25 04:38:00,14.8,8.3,30.40,South,188,0.0,0.0,75,0.00,,---,0.00,VWS V14.00,2013-01-25 09:38:00,
2013-01-25 04:43:00,14.8,8.3,30.40,South,188,0.0,0.0,75,0.00,,---,0.00,VWS V14.00,2013-01-25 09:43:00,
2013-01-25 04:48:00,14.8,8.3,30.39,South,188,0.0,1.0,75,0.00,,---,0.00,VWS V14.00,2013-01-25 09:48:00,
2013-01-25 04:53:00,14.6,8.1,30.39,South,190,0.0,1.0,75,0.00,,---,0.00,VWS V14.00,2013-01-25 09:53:00,
2013-01-25 04:58:00,14.5,8.0,30.40,South,190,0.0,0.0,75,0.00,,---,0.00,VWS V14.00,2013-01-25 09:58:00,
2013-01-25 05:03:00,14.5,8.0,30.40,SSW,192,0.0,3.0,75,0.00,,---,0.00,VWS V14.00,2013-01-25 10:03:00,
2013-01-25 05:08:00,14.5,8.0,30.39,SSW,192,2.0,3.0,75,0.00,,---,0.00,VWS V14.00,2013-01-25 10:08:00,
2013-01-25 05:13:00,14.4,7.9,30.40,SSW,192,0.0,3.0,75,0.00,,---,0.00,VWS V14.00,2013-01-25 10:13:00,
2013-01-25 05:18:00,14.4,7.9,30.39,SSW,192,0.0,3.0,75,0.00,,---,0.00,VWS V14.00,2013-01-25 10:18:00,
2013-01-25 05:23:00,14.4,7.9,30.39,SSW,192,0.0,4.0,75,0.00,,---,0.00,VWS V14.00,2013-01-25 10:23:00,
2013-01-25 05:28:00,14.4,7.6,30.39,SSW,194,0.0,0.0,74,0.00,,---,0.00,VWS V14.00,2013-01-25 10:28:00,
2013-01-25 05:33:00,14.3,7.6,30.39,SSW,194,0.0,3.0,74,0.00,,---,0.00,VWS V14.00,2013-01-25 10:33:00,
2013-01-25 05:38:00,14.2,7.4,30.40,SSW,194,0.0,3.0,74,0.00,,---,0.00,VWS V14.00,2013-01-25 10:38:00,
2013-01-25 05:43:00,14.2,7.7,30.39,SSW,194,0.0,3.0,75,0.00,,---,0.00,VWS V14.00,2013-01-25 10:43:00,
2013-01-25 05:48:00,14.2,7.7,30.38,SSW,194,0.0,3.0,75,0.00,,---,0.00,VWS V14.00,2013-01-25 10:48:00,
2013-01-25 05:53:00,14.1,7.7,30.38,SSW,195,0.0,4.0,75,0.00,,---,0.00,VWS V14.00,2013-01-25 10:53:00,
2013-01-25 05:58:00,14.0,7.6,30.37,SSW,195,0.0,0.0,75,0.00,,---,0.00,VWS V14.00,2013-01-25 10:58:00,
2013-01-25 06:03:00,14.0,7.6,30.37,SSW,195,0.0,0.0,75,0.00,,---,0.00,VWS V14.00,2013-01-25 11:03:00,
2013-01-25 06:08:00,13.8,7.4,30.37,SSW,195,0.0,2.0,75,0.00,,---,0.00,VWS V14.00,2013-01-25 11:08:00,
2013-01-25 06:13:00,13.7,7.3,30.37,SSW,195,2.0,3.0,75,0.00,,---,0.00,VWS V14.00,2013-01-25 11:13:00,
2013-01-25 06:18:00,13.7,7.3,30.36,SSW,193,0.0,3.0,75,0.00,,---,0.00,VWS V14.00,2013-01-25 11:18:00,
2013-01-25 06:23:00,13.7,7.3,30.37,SSW,193,0.0,3.0,75,0.00,,---,0.00,VWS V14.00,2013-01-25 11:23:00,
2013-01-25 06:28:00,13.7,7.3,30.37,SSW,193,0.0,2.0,75,0.00,,---,0.00,VWS V14.00,2013-01-25 11:28:00,
2013-01-25 06:33:00,13.8,7.7,30.37,SSW,194,0.0,3.0,76,0.00,,---,0.00,VWS V14.00,2013-01-25 11:33:00,
2013-01-25 06:38:00,13.9,8.0,30.37,SSW,194,0.0,3.0,77,0.00,,---,0.00,VWS V14.00,2013-01-25 11:38:00,
2013-01-25 06:43:00,14.0,8.1,30.37,SSW,192,0.0,3.0,77,0.00,,---,0.00,VWS V14.00,2013-01-25 11:43:00,
2013-01-25 06:48:00,14.0,8.1,30.37,SSW,197,0.0,4.0,77,0.00,,---,0.00,VWS V14.00,2013-01-25 11:48:00,
2013-01-25 06:53:00,14.1,8.2,30.37,SSW,197,0.0,4.0,77,0.00,,---,0.00,VWS V14.00,2013-01-25 11:53:00,
2013-01-25 06:58:00,14.3,8.4,30.37,SSW,198,0.0,0.0,77,0.00,,---,0.00,VWS V14.00,2013-01-25 11:58:00,
2013-01-25 07:03:00,14.4,8.2,30.36,SSW,196,0.0,7.0,76,0.00,,---,0.00,VWS V14.00,2013-01-25 12:03:00,
2013-01-25 07:08:00,14.5,8.0,30.37,South,180,0.0,7.0,75,0.00,,---,0.00,VWS V14.00,2013-01-25 12:08:00,
2013-01-25 07:13:00,14.7,8.2,30.36,South,182,0.0,7.0,75,0.00,,---,0.00,VWS V14.00,2013-01-25 12:13:00,
2013-01-25 07:18:00,14.9,8.1,30.36,South,184,2.0,7.0,74,0.00,,---,0.00,VWS V14.00,2013-01-25 12:18:00,
2013-01-25 07:23:00,15.1,8.3,30.36,South,187,0.0,7.0,74,0.00,,---,0.00,VWS V14.00,2013-01-25 12:23:00,
2013-01-25 07:28:00,15.2,8.1,30.36,SSW,194,1.0,1.0,73,0.00,,---,0.00,VWS V14.00,2013-01-25 12:28:00,
2013-01-25 07:33:00,15.2,8.1,30.36,SSW,197,0.0,4.0,73,0.00,,---,0.00,VWS V14.00,2013-01-25 12:33:00,
2013-01-25 07:38:00,15.3,8.2,30.35,SSW,198,0.0,4.0,73,0.00,,---,0.00,VWS V14.00,2013-01-25 12:38:00,
2013-01-25 07:43:00,15.4,8.6,30.35,SSW,198,1.0,4.0,74,0.00,,---,0.00,VWS V14.00,2013-01-25 12:43:00,
2013-01-25 07:48:00,15.5,8.7,30.35,SSW,200,2.0,5.0,74,0.00,,---,0.00,VWS V14.00,2013-01-25 12:48:00,
2013-01-25 07:53:00,15.6,8.8,30.34,SSW,200,2.0,5.0,74,0.00,,---,0.00,VWS V14.00,2013-01-25 12:53:00,
2013-01-25 07:58:00,15.6,8.8,30.34,SSW,200,0.0,0.0,74,0.00,,---,0.00,VWS V14.00,2013-01-25 12:58:00,
2013-01-25 08:03:00,15.7,8.9,30.34,SSW,200,0.0,4.0,74,0.00,,---,0.00,VWS V14.00,2013-01-25 13:03:00,
2013-01-25 08:08:00,15.8,9.0,30.35,SSW,200,0.0,4.0,74,0.00,,---,0.00,VWS V14.00,2013-01-25 13:08:00,
2013-01-25 08:13:00,15.9,9.1,30.34,SSW,203,0.0,4.0,74,0.00,,---,0.00,VWS V14.00,2013-01-25 13:13:00,
2013-01-25 08:18:00,16.1,9.3,30.33,South,176,6.0,6.0,74,0.00,,---,0.00,VWS V14.00,2013-01-25 13:18:00,
2013-01-25 08:23:00,16.3,9.2,30.32,SSW,198,0.0,6.0,73,0.00,,---,0.00,VWS V14.00,2013-01-25 13:23:00,
2013-01-25 08:28:00,16.6,9.5,30.32,SSW,198,0.0,0.0,73,0.00,,---,0.00,VWS V14.00,2013-01-25 13:28:00,
2013-01-25 08:33:00,16.8,9.4,30.31,SSW,198,1.0,3.0,72,0.00,,---,0.00,VWS V14.00,2013-01-25 13:33:00,
2013-01-25 08:38:00,16.9,9.1,30.31,SSW,202,2.0,4.0,71,0.00,,---,0.00,VWS V14.00,2013-01-25 13:38:00,
2013-01-25 08:43:00,17.0,9.2,30.31,SSW,208,0.0,5.0,71,0.00,,---,0.00,VWS V14.00,2013-01-25 13:43:00,
2013-01-25 08:48:00,17.2,9.1,30.31,SW,221,2.0,6.0,70,0.00,,---,0.00,VWS V14.00,2013-01-25 13:48:00,
2013-01-25 08:53:00,17.2,9.1,30.31,SW,215,2.0,6.0,70,0.00,,---,0.00,VWS V14.00,2013-01-25 13:53:00,
2013-01-25 08:58:00,17.2,9.1,30.31,SSW,207,0.0,1.0,70,0.00,,---,0.00,VWS V14.00,2013-01-25 13:58:00,
2013-01-25 09:03:00,17.5,9.4,30.31,SSW,213,0.0,5.0,70,0.00,,---,0.00,VWS V14.00,2013-01-25 14:03:00,
2013-01-25 09:08:00,17.6,9.5,30.31,SSW,205,3.0,6.0,70,0.00,,---,0.00,VWS V14.00,2013-01-25 14:08:00,
2013-01-25 09:13:00,17.9,9.8,30.31,South,190,0.0,8.0,70,0.00,,---,0.00,VWS V14.00,2013-01-25 14:13:00,
2013-01-25 09:18:00,18.2,10.1,30.31,SSW,194,4.0,8.0,70,0.00,,---,0.00,VWS V14.00,2013-01-25 14:18:00,
2013-01-25 09:23:00,18.3,9.9,30.31,South,181,3.0,9.0,69,0.00,,---,0.00,VWS V14.00,2013-01-25 14:23:00,
2013-01-25 09:28:00,18.4,9.6,30.30,SSE,150,4.0,7.0,68,0.00,,---,0.00,VWS V14.00,2013-01-25 14:28:00,
2013-01-25 09:33:00,18.9,9.4,30.28,SSE,147,4.0,9.0,66,0.00,,---,0.00,VWS V14.00,2013-01-25 14:33:00,
2013-01-25 09:38:00,19.3,9.1,30.29,SSE,164,5.0,9.0,64,0.00,,---,0.00,VWS V14.00,2013-01-25 14:38:00,
2013-01-25 09:43:00,19.5,9.0,30.28,SSE,158,5.0,11.0,63,0.00,,---,0.00,VWS V14.00,2013-01-25 14:43:00,
2013-01-25 09:48:00,19.8,8.9,30.28,SSE,165,6.0,13.0,62,0.00,,---,0.00,VWS V14.00,2013-01-25 14:48:00,
2013-01-25 09:53:00,19.9,9.0,30.29,SSW,200,6.0,13.0,62,0.00,,---,0.00,VWS V14.00,2013-01-25 14:53:00,
2013-01-25 09:58:00,20.1,9.2,30.28,South,169,7.0,7.0,62,0.00,,---,0.00,VWS V14.00,2013-01-25 14:58:00,
2013-01-25 10:03:00,20.2,9.3,30.28,SSE,160,5.0,9.0,62,0.00,,---,0.00,VWS V14.00,2013-01-25 15:03:00,
2013-01-25 10:08:00,20.3,9.4,30.27,SSE,160,5.0,9.0,62,0.00,,---,0.00,VWS V14.00,2013-01-25 15:08:00,
2013-01-25 10:13:00,20.5,9.6,30.26,South,187,2.0,9.0,62,0.00,,---,0.00,VWS V14.00,2013-01-25 15:13:00,
2013-01-25 10:18:00,20.9,10.3,30.27,South,175,7.0,9.0,63,0.00,,---,0.00,VWS V14.00,2013-01-25 15:18:00,
2013-01-25 10:23:00,21.1,10.1,30.26,South,174,1.0,9.0,62,0.00,,---,0.00,VWS V14.00,2013-01-25 15:23:00,
2013-01-25 10:27:00,21.3,10.7,30.26,South,172,4.0,6.0,63,0.00,,---,0.00,VWS V14.00,2013-01-25 15:27:00,
2013-01-25 10:32:00,21.5,9.4,30.26,SSW,206,0.0,8.0,59,0.00,,---,0.00,VWS V14.00,2013-01-25 15:32:00,
2013-01-25 10:37:00,21.7,9.6,30.26,SSE,152,2.0,8.0,59,0.00,,---,0.00,VWS V14.00,2013-01-25 15:37:00,
2013-01-25 10:42:00,21.7,9.2,30.26,South,173,4.0,8.0,58,0.00,,---,0.00,VWS V14.00,2013-01-25 15:42:00,
2013-01-25 10:47:00,22.0,9.5,30.26,SSW,196,5.0,11.0,58,0.00,,---,0.00,VWS V14.00,2013-01-25 15:47:00,
2013-01-25 10:52:00,22.2,8.9,30.25,SSW,197,4.0,11.0,56,0.00,,---,0.00,VWS V14.00,2013-01-25 15:52:00,
2013-01-25 10:57:00,22.0,8.7,30.25,South,170,9.0,9.0,56,0.00,,---,0.00,VWS V14.00,2013-01-25 15:57:00,
2013-01-25 11:02:00,22.1,8.8,30.24,SSE,151,5.0,9.0,56,0.00,,---,0.00,VWS V14.00,2013-01-25 16:02:00,
2013-01-25 11:07:00,22.3,9.0,30.24,SSW,192,5.0,12.0,56,0.00,,---,0.00,VWS V14.00,2013-01-25 16:07:00,
2013-01-25 11:12:00,22.6,8.5,30.23,South,185,8.0,13.0,54,0.00,,---,0.00,VWS V14.00,2013-01-25 16:12:00,
2013-01-25 11:17:00,22.8,7.4,30.23,SSE,163,12.0,15.0,51,0.00,,---,0.00,VWS V14.00,2013-01-25 16:17:00,
2013-01-25 11:22:00,22.8,7.0,30.22,South,175,7.0,15.0,50,0.00,,---,0.00,VWS V14.00,2013-01-25 16:22:00,
2013-01-25 11:27:00,22.9,6.6,30.21,SE,140,4.0,6.0,49,0.00,,---,0.00,VWS V14.00,2013-01-25 16:27:00,
2013-01-25 11:32:00,23.1,7.2,30.21,SSE,157,8.0,15.0,50,0.00,,---,0.00,VWS V14.00,2013-01-25 16:32:00,
2013-01-25 11:37:00,23.3,7.4,30.21,SSE,158,8.0,15.0,50,0.00,,---,0.00,VWS V14.00,2013-01-25 16:37:00,
2013-01-25 11:42:00,23.2,6.9,30.20,South,173,10.0,15.0,49,0.00,,---,0.00,VWS V14.00,2013-01-25 16:42:00,
2013-01-25 11:47:00,23.2,6.9,30.20,SE,130,11.0,15.0,49,0.00,,---,0.00,VWS V14.00,2013-01-25 16:47:00,
2013-01-25 11:52:00,23.1,6.3,30.20,South,169,13.0,15.0,48,0.00,,---,0.00,VWS V14.00,2013-01-25 16:52:00,
2013-01-25 11:57:00,23.1,6.3,30.20,SSE,156,5.0,8.0,48,0.00,,---,0.00,VWS V14.00,2013-01-25 16:57:00,
2013-01-25 12:02:00,23.1,6.8,30.19,SSE,148,7.0,15.0,49,0.00,,---,0.00,VWS V14.00,2013-01-25 17:02:00,
2013-01-25 12:07:00,23.1,6.8,30.19,SE,132,6.0,17.0,49,0.00,,---,0.00,VWS V14.00,2013-01-25 17:07:00,
2013-01-25 12:12:00,23.1,6.3,30.19,South,182,11.0,17.0,48,0.00,,---,0.00,VWS V14.00,2013-01-25 17:12:00,
2013-01-25 12:17:00,23.2,6.9,30.18,SSE,156,8.0,17.0,49,0.00,,---,0.00,VWS V14.00,2013-01-25 17:17:00,
2013-01-25 12:22:00,23.4,7.5,30.17,SSW,200,8.0,17.0,50,0.00,,---,0.00,VWS V14.00,2013-01-25 17:22:00,
2013-01-25 12:27:00,23.6,7.3,30.17,South,190,10.0,14.0,49,0.00,,---,0.00,VWS V14.00,2013-01-25 17:27:00,
2013-01-25 12:32:00,23.7,7.3,30.17,SSE,151,13.0,15.0,49,0.00,,---,0.00,VWS V14.00,2013-01-25 17:32:00,
2013-01-25 12:37:00,23.8,7.0,30.16,SE,136,6.0,15.0,48,0.00,,---,0.00,VWS V14.00,2013-01-25 17:37:00,
2013-01-25 12:42:00,23.9,7.5,30.15,South,185,14.0,15.0,49,0.00,,---,0.00,VWS V14.00,2013-01-25 17:42:00,
2013-01-25 12:47:00,23.8,7.0,30.15,SE,134,6.0,18.0,48,0.00,,---,0.00,VWS V14.00,2013-01-25 17:47:00,
2013-01-25 12:52:00,23.8,7.0,30.15,SSE,163,4.0,18.0,48,0.00,,---,0.00,VWS V14.00,2013-01-25 17:52:00,
2013-01-25 12:57:00,23.8,7.0,30.15,South,178,9.0,10.0,48,0.00,,---,0.00,VWS V14.00,2013-01-25 17:57:00,
2013-01-25 13:02:00,23.7,8.2,30.14,SSW,192,3.0,16.0,51,0.00,,---,0.00,VWS V14.00,2013-01-25 18:02:00,
2013-01-25 13:07:00,23.3,9.9,30.12,SSE,151,6.0,17.0,56,0.00,,---,0.00,VWS V14.00,2013-01-25 18:07:00,
2013-01-25 13:12:00,22.9,10.3,30.12,South,185,5.0,17.0,58,0.00,,---,0.00,VWS V14.00,2013-01-25 18:12:00,
2013-01-25 13:17:00,22.6,10.4,30.12,South,182,5.0,17.0,59,0.00,,---,0.00,VWS V14.00,2013-01-25 18:17:00,
2013-01-25 13:22:00,22.7,10.5,30.12,SSE,154,11.0,17.0,59,0.00,,---,0.00,VWS V14.00,2013-01-25 18:22:00,
2013-01-25 13:27:00,22.7,10.5,30.11,SE,138,7.0,8.0,59,0.00,,---,0.00,VWS V14.00,2013-01-25 18:27:00,
2013-01-25 13:32:00,22.7,10.9,30.12,SSW,196,9.0,17.0,60,0.00,,---,0.00,VWS V14.00,2013-01-25 18:32:00,
2013-01-25 13:37:00,22.6,11.6,30.11,SSE,149,8.0,17.0,62,0.00,,---,0.00,VWS V14.00,2013-01-25 18:37:00,
2013-01-25 13:42:00,22.4,11.7,30.11,SSE,157,10.0,17.0,63,0.00,,---,0.00,VWS V14.00,2013-01-25 18:42:00,
2013-01-25 13:47:00,22.2,11.9,30.09,SSE,159,9.0,17.0,64,0.00,,---,0.00,VWS V14.00,2013-01-25 18:47:00,
2013-01-25 13:52:00,22.0,12.1,30.09,SE,145,5.0,17.0,65,0.00,,---,0.00,VWS V14.00,2013-01-25 18:52:00,
2013-01-25 13:57:00,21.9,12.0,30.09,South,171,8.0,11.0,65,0.00,,---,0.00,VWS V14.00,2013-01-25 18:57:00,
2013-01-25 14:02:00,21.7,11.4,30.08,SSW,205,10.0,17.0,64,0.00,,---,0.00,VWS V14.00,2013-01-25 19:02:00,
2013-01-25 14:07:00,21.6,11.3,30.08,South,171,7.0,17.0,64,0.00,,---,0.00,VWS V14.00,2013-01-25 19:07:00,
2013-01-25 14:12:00,21.6,11.3,30.08,SSE,160,10.0,17.0,64,0.00,,---,0.00,VWS V14.00,2013-01-25 19:12:00,
2013-01-25 14:17:00,21.6,11.7,30.08,South,170,9.0,17.0,65,0.00,,---,0.00,VWS V14.00,2013-01-25 19:17:00,
2013-01-25 14:22:00,21.7,11.8,30.08,South,180,6.0,17.0,65,0.00,,---,0.00,VWS V14.00,2013-01-25 19:22:00,
2013-01-25 14:27:00,21.9,12.3,30.07,SSE,159,7.0,9.0,66,0.00,,---,0.00,VWS V14.00,2013-01-25 19:27:00,
2013-01-25 14:32:00,21.9,12.6,30.07,SSW,193,8.0,19.0,67,0.00,,---,0.00,VWS V14.00,2013-01-25 19:32:00,
2013-01-25 14:37:00,21.8,12.9,30.07,SSW,197,2.0,19.0,68,0.00,,---,0.00,VWS V14.00,2013-01-25 19:37:00,
2013-01-25 14:42:00,21.8,13.2,30.07,South,171,6.0,19.0,69,0.00,,---,0.00,VWS V14.00,2013-01-25 19:42:00,
2013-01-25 14:47:00,21.8,13.2,30.06,South,182,7.0,19.0,69,0.00,,---,0.00,VWS V14.00,2013-01-25 19:47:00,
2013-01-25 14:52:00,21.7,13.4,30.06,SSE,167,12.0,19.0,70,0.00,,---,0.00,VWS V14.00,2013-01-25 19:52:00,
2013-01-25 14:57:00,21.7,13.4,30.06,South,182,9.0,13.0,70,0.00,,---,0.00,VWS V14.00,2013-01-25 19:57:00,
2013-01-25 15:02:00,21.7,13.4,30.06,SSE,148,10.0,14.0,70,0.00,,---,0.00,VWS V14.00,2013-01-25 20:02:00,
2013-01-25 15:07:00,21.6,13.0,30.05,South,184,5.0,17.0,69,0.00,,---,0.00,VWS V14.00,2013-01-25 20:07:00,
2013-01-25 15:12:00,21.7,13.4,30.05,SSE,151,6.0,17.0,70,0.00,,---,0.00,VWS V14.00,2013-01-25 20:12:00,
2013-01-25 15:17:00,21.7,13.1,30.05,South,184,10.0,17.0,69,0.00,,---,0.00,VWS V14.00,2013-01-25 20:17:00,
2013-01-25 15:22:00,21.7,13.4,30.06,South,169,10.0,17.0,70,0.00,,---,0.00,VWS V14.00,2013-01-25 20:22:00,
2013-01-25 15:27:00,21.7,13.4,30.05,SSE,154,9.0,9.0,70,0.00,,---,0.00,VWS V14.00,2013-01-25 20:27:00,
2013-01-25 15:32:00,21.8,13.5,30.06,South,172,10.0,13.0,70,0.00,,---,0.00,VWS V14.00,2013-01-25 20:32:00,
2013-01-25 15:37:00,21.9,13.6,30.05,SW,221,5.0,13.0,70,0.00,,---,0.00,VWS V14.00,2013-01-25 20:37:00,
2013-01-25 15:42:00,22.0,13.7,30.05,South,174,6.0,13.0,70,0.00,,---,0.00,VWS V14.00,2013-01-25 20:42:00,
2013-01-25 15:47:00,22.0,14.1,30.05,SE,142,5.0,13.0,71,0.00,,---,0.00,VWS V14.00,2013-01-25 20:47:00,
2013-01-25 15:52:00,22.0,14.1,30.05,SE,142,7.0,13.0,71,0.00,,---,0.00,VWS V14.00,2013-01-25 20:52:00,
2013-01-25 15:57:00,22.1,14.5,30.05,South,180,5.0,7.0,72,0.00,,---,0.00,VWS V14.00,2013-01-25 20:57:00,
2013-01-25 16:02:00,22.1,14.5,30.04,SSE,159,1.0,8.0,72,0.00,,---,0.00,VWS V14.00,2013-01-25 21:02:00,
2013-01-25 16:07:00,22.2,14.9,30.05,SSE,154,4.0,9.0,73,0.00,,---,0.00,VWS V14.00,2013-01-25 21:07:00,
2013-01-25 16:12:00,22.3,15.3,30.04,SE,140,5.0,9.0,74,0.00,,---,0.00,VWS V14.00,2013-01-25 21:12:00,
2013-01-25 16:17:00,22.3,15.3,30.04,SSE,147,4.0,9.0,74,0.00,,---,0.00,VWS V14.00,2013-01-25 21:17:00,
2013-01-25 16:22:00,22.3,15.6,30.04,SSE,151,6.0,9.0,75,0.00,,---,0.00,VWS V14.00,2013-01-25 21:22:00,
2013-01-25 16:27:00,22.2,15.5,30.04,SE,146,5.0,6.0,75,0.00,,---,0.00,VWS V14.00,2013-01-25 21:27:00,
2013-01-25 16:32:00,22.2,15.5,30.03,SSE,150,5.0,13.0,75,0.00,,---,0.00,VWS V14.00,2013-01-25 21:32:00,
2013-01-25 16:37:00,22.1,15.4,30.03,SSE,147,0.0,13.0,75,0.00,,---,0.00,VWS V14.00,2013-01-25 21:37:00,
2013-01-25 16:42:00,22.1,15.7,30.03,SSE,159,5.0,13.0,76,0.00,,---,0.00,VWS V14.00,2013-01-25 21:42:00,
2013-01-25 16:47:00,22.1,15.7,30.02,SE,142,4.0,13.0,76,0.00,,---,0.00,VWS V14.00,2013-01-25 21:47:00,
2013-01-25 16:52:00,22.1,15.7,30.02,SSE,156,5.0,13.0,76,0.00,,---,0.00,VWS V14.00,2013-01-25 21:52:00,
2013-01-25 16:57:00,22.0,15.3,30.02,SSE,159,5.0,7.0,75,0.00,,---,0.00,VWS V14.00,2013-01-25 21:57:00,
2013-01-25 17:02:00,22.0,15.3,30.02,South,185,4.0,10.0,75,0.00,,---,0.00,VWS V14.00,2013-01-25 22:02:00,
2013-01-25 17:07:00,22.0,15.6,30.02,South,169,0.0,10.0,76,0.00,,---,0.00,VWS V14.00,2013-01-25 22:07:00,
2013-01-25 17:12:00,21.9,15.2,30.01,SSE,157,4.0,11.0,75,0.00,,---,0.00,VWS V14.00,2013-01-25 22:12:00,
2013-01-25 17:17:00,21.8,15.1,30.01,South,180,5.0,11.0,75,0.00,,---,0.00,VWS V14.00,2013-01-25 22:17:00,
2013-01-25 17:22:00,21.8,15.1,30.01,South,182,0.0,11.0,75,0.00,,---,0.00,VWS V14.00,2013-01-25 22:22:00,
2013-01-25 17:27:00,21.7,15.0,30.01,SSE,158,1.0,1.0,75,0.00,,---,0.00,VWS V14.00,2013-01-25 22:27:00,
2013-01-25 17:32:00,21.7,15.0,30.01,SSE,157,0.0,7.0,75,0.00,,---,0.00,VWS V14.00,2013-01-25 22:32:00,
2013-01-25 17:37:00,21.6,14.9,30.01,SSE,161,0.0,7.0,75,0.00,,---,0.00,VWS V14.00,2013-01-25 22:37:00,
2013-01-25 17:42:00,21.6,14.9,30.00,South,175,5.0,7.0,75,0.00,,---,0.00,VWS V14.00,2013-01-25 22:42:00,
2013-01-25 17:47:00,21.7,15.0,30.00,South,171,5.0,7.0,75,0.00,,---,0.00,VWS V14.00,2013-01-25 22:47:00,
2013-01-25 17:52:00,21.7,15.0,30.01,South,175,0.0,7.0,75,0.00,,---,0.00,VWS V14.00,2013-01-25 22:52:00,
2013-01-25 17:57:00,21.6,14.9,30.01,South,189,0.0,0.0,75,0.00,,---,0.00,VWS V14.00,2013-01-25 22:57:00,
2013-01-25 18:02:00,21.6,14.9,30.01,South,190,0.0,4.0,75,0.00,,---,0.00,VWS V14.00,2013-01-25 23:02:00,
2013-01-25 18:07:00,21.6,14.9,30.00,South,182,2.0,5.0,75,0.00,,---,0.00,VWS V14.00,2013-01-25 23:07:00,
2013-01-25 18:12:00,21.7,15.0,30.00,SSE,167,1.0,6.0,75,0.00,,---,0.00,VWS V14.00,2013-01-25 23:12:00,
2013-01-25 18:17:00,21.8,15.1,30.00,SSW,196,2.0,7.0,75,0.00,,---,0.00,VWS V14.00,2013-01-25 23:17:00,
2013-01-25 18:22:00,22.0,15.3,30.00,South,182,3.0,7.0,75,0.00,,---,0.00,VWS V14.00,2013-01-25 23:22:00,
2013-01-25 18:27:00,22.2,15.5,30.00,South,185,4.0,4.0,75,0.00,,---,0.00,VWS V14.00,2013-01-25 23:27:00,
2013-01-25 18:32:00,22.3,15.6,30.00,SSE,161,6.0,7.0,75,0.00,,---,0.00,VWS V14.00,2013-01-25 23:32:00,
2013-01-25 18:37:00,22.3,15.6,30.00,South,174,4.0,7.0,75,0.00,,---,0.00,VWS V14.00,2013-01-25 23:37:00,
2013-01-25 18:42:00,22.4,15.7,30.00,South,190,2.0,7.0,75,0.00,,---,0.00,VWS V14.00,2013-01-25 23:42:00,
2013-01-25 18:47:00,22.5,15.8,30.00,South,173,0.0,7.0,75,0.00,,---,0.00,VWS V14.00,2013-01-25 23:47:00,
2013-01-25 18:52:00,22.5,15.8,30.00,South,174,0.0,7.0,75,0.00,,---,0.00,VWS V14.00,2013-01-25 23:52:00,
2013-01-25 18:57:00,22.7,16.0,30.00,South,169,0.0,0.0,75,0.00,,---,0.00,VWS V14.00,2013-01-25 23:57:00,
2013-01-25 19:02:00,22.8,15.8,30.00,SSE,160,6.0,7.0,74,0.00,,---,0.00,VWS V14.00,2013-01-26 00:02:00,
2013-01-25 19:07:00,22.9,15.9,30.00,South,175,4.0,7.0,74,0.00,,---,0.00,VWS V14.00,2013-01-26 00:07:00,
2013-01-25 19:12:00,23.0,16.0,29.99,South,177,5.0,7.0,74,0.00,,---,0.00,VWS V14.00,2013-01-26 00:12:00,
2013-01-25 19:17:00,23.0,16.0,30.00,SSE,161,5.0,7.0,74,0.00,,---,0.00,VWS V14.00,2013-01-26 00:17:00,
2013-01-25 19:22:00,23.1,16.1,29.99,South,181,2.0,10.0,74,0.00,,---,0.00,VWS V14.00,2013-01-26 00:22:00,
2013-01-25 19:27:00,23.2,16.2,29.99,South,186,0.0,1.0,74,0.00,,---,0.00,VWS V14.00,2013-01-26 00:27:00,
2013-01-25 19:32:00,23.3,16.2,29.99,South,180,3.0,6.0,74,0.00,,---,0.00,VWS V14.00,2013-01-26 00:32:00,
2013-01-25 19:37:00,23.4,16.4,29.99,South,191,3.0,8.0,74,0.00,,---,0.00,VWS V14.00,2013-01-26 00:37:00,
2013-01-25 19:42:00,23.4,16.4,30.00,SSE,168,7.0,8.0,74,0.00,,---,0.00,VWS V14.00,2013-01-26 00:42:00,
2013-01-25 19:47:00,23.5,16.5,30.00,South,171,0.0,9.0,74,0.00,,---,0.00,VWS V14.00,2013-01-26 00:47:00,
2013-01-25 19:52:00,23.6,16.5,30.00,SSE,167,1.0,9.0,74,0.00,,---,0.00,VWS V14.00,2013-01-26 00:52:00,
2013-01-25 19:57:00,23.6,16.5,29.99,SSW,202,2.0,6.0,74,0.00,,---,0.00,VWS V14.00,2013-01-26 00:57:00,
2013-01-25 20:02:00,23.7,16.6,29.99,South,180,2.0,7.0,74,0.00,,---,0.00,VWS V14.00,2013-01-26 01:02:00,
2013-01-25 20:07:00,23.8,16.4,29.99,SSE,160,6.0,8.0,73,0.00,,---,0.00,VWS V14.00,2013-01-26 01:07:00,
2013-01-25 20:12:00,23.8,16.4,29.99,SSE,156,0.0,9.0,73,0.00,,---,0.00,VWS V14.00,2013-01-26 01:12:00,
2013-01-25 20:17:00,23.9,16.5,29.99,SE,144,4.0,10.0,73,0.00,,---,0.00,VWS V14.00,2013-01-26 01:17:00,
2013-01-25 20:22:00,23.9,16.8,29.99,South,175,1.0,10.0,74,0.00,,---,0.00,VWS V14.00,2013-01-26 01:22:00,
2013-01-25 20:27:00,24.0,16.9,29.99,SSW,202,3.0,3.0,74,0.00,,---,0.00,VWS V14.00,2013-01-26 01:27:00,
2013-01-25 20:32:00,24.0,16.9,29.99,South,189,2.0,7.0,74,0.00,,---,0.00,VWS V14.00,2013-01-26 01:32:00,
2013-01-25 20:37:00,24.1,16.7,29.99,South,185,6.0,7.0,73,0.00,,---,0.00,VWS V14.00,2013-01-26 01:37:00,
2013-01-25 20:42:00,24.2,16.8,29.98,South,170,5.0,9.0,73,0.00,,---,0.00,VWS V14.00,2013-01-26 01:42:00,
2013-01-25 20:47:00,24.2,16.8,29.99,SSW,202,4.0,9.0,73,0.00,,---,0.00,VWS V14.00,2013-01-26 01:47:00,
2013-01-25 20:52:00,24.3,16.9,29.98,South,172,4.0,11.0,73,0.00,,---,0.00,VWS V14.00,2013-01-26 01:52:00,
2013-01-25 20:57:00,24.3,16.9,29.98,SSW,192,5.0,8.0,73,0.00,,---,0.00,VWS V14.00,2013-01-26 01:57:00,
2013-01-25 21:02:00,24.4,17.0,29.99,SSW,193,1.0,8.0,73,0.00,,---,0.00,VWS V14.00,2013-01-26 02:02:00,
2013-01-25 21:07:00,24.4,17.0,29.98,South,182,3.0,8.0,73,0.00,,---,0.00,VWS V14.00,2013-01-26 02:07:00,
2013-01-25 21:12:00,24.5,17.1,29.99,SSW,192,3.0,8.0,73,0.00,,---,0.00,VWS V14.00,2013-01-26 02:12:00,
2013-01-25 21:17:00,24.5,17.1,29.98,South,178,5.0,8.0,73,0.00,,---,0.00,VWS V14.00,2013-01-26 02:17:00,
2013-01-25 21:22:00,24.5,17.1,29.99,SSE,165,0.0,8.0,73,0.00,,---,0.00,VWS V14.00,2013-01-26 02:22:00,
2013-01-25 21:27:00,24.6,17.2,29.99,SSE,165,4.0,4.0,73,0.00,,---,0.00,VWS V14.00,2013-01-26 02:27:00,
2013-01-25 21:32:00,24.7,17.3,29.99,South,188,0.0,5.0,73,0.00,,---,0.00,VWS V14.00,2013-01-26 02:32:00,
2013-01-25 21:37:00,24.8,17.7,29.99,South,182,1.0,5.0,74,0.00,,---,0.00,VWS V14.00,2013-01-26 02:37:00,
2013-01-25 21:42:00,24.8,17.7,29.99,SSW,192,0.0,6.0,74,0.00,,---,0.00,VWS V14.00,2013-01-26 02:42:00,
2013-01-25 21:47:00,24.8,17.7,29.99,South,178,0.0,6.0,74,0.00,,---,0.00,VWS V14.00,2013-01-26 02:47:00,
2013-01-25 21:52:00,24.9,17.8,29.99,South,179,0.0,6.0,74,0.00,,---,0.00,VWS V14.00,2013-01-26 02:52:00,
2013-01-25 21:57:00,24.9,17.8,29.99,South,180,0.0,0.0,74,0.00,,---,0.00,VWS V14.00,2013-01-26 02:57:00,
2013-01-25 22:02:00,24.9,17.8,29.99,South,181,1.0,1.0,74,0.00,,---,0.00,VWS V14.00,2013-01-26 03:02:00,
2013-01-25 22:07:00,25.0,17.9,29.99,South,172,0.0,2.0,74,0.00,,---,0.00,VWS V14.00,2013-01-26 03:07:00,
2013-01-25 22:12:00,25.0,17.9,29.99,South,173,0.0,5.0,74,0.00,,---,0.00,VWS V14.00,2013-01-26 03:12:00,
2013-01-25 22:17:00,25.0,17.9,29.99,South,174,0.0,5.0,74,0.00,,---,0.00,VWS V14.00,2013-01-26 03:17:00,
2013-01-25 22:22:00,25.1,18.0,29.98,South,174,0.0,5.0,74,0.00,,---,0.00,VWS V14.00,2013-01-26 03:22:00,
2013-01-25 22:27:00,25.1,18.0,29.98,South,174,2.0,5.0,74,0.00,,---,0.00,VWS V14.00,2013-01-26 03:27:00,
2013-01-25 22:32:00,25.1,18.3,29.98,South,174,0.0,1.0,75,0.00,,---,0.00,VWS V14.00,2013-01-26 03:32:00,
2013-01-25 22:37:00,25.1,18.3,29.98,South,174,0.0,1.0,75,0.00,,---,0.00,VWS V14.00,2013-01-26 03:37:00,
2013-01-25 22:42:00,24.9,18.1,29.98,South,174,0.0,1.0,75,0.00,,---,0.00,VWS V14.00,2013-01-26 03:42:00,
2013-01-25 22:47:00,24.8,18.3,29.98,South,174,0.0,1.0,76,0.00,,---,0.00,VWS V14.00,2013-01-26 03:47:00,
2013-01-25 22:52:00,24.8,18.3,29.98,South,174,0.0,1.0,76,0.00,,---,0.00,VWS V14.00,2013-01-26 03:52:00,
2013-01-25 22:57:00,24.8,18.3,29.98,South,174,0.0,1.0,76,0.00,,---,0.00,VWS V14.00,2013-01-26 03:57:00,
2013-01-25 23:02:00,24.7,18.2,29.98,South,174,0.0,0.0,76,0.00,,---,0.00,VWS V14.00,2013-01-26 04:02:00,
2013-01-25 23:07:00,24.7,18.2,29.99,South,174,0.0,0.0,76,0.00,,---,0.00,VWS V14.00,2013-01-26 04:07:00,
2013-01-25 23:12:00,24.7,18.2,29.99,South,174,0.0,0.0,76,0.00,,---,0.00,VWS V14.00,2013-01-26 04:12:00,
2013-01-25 23:17:00,24.7,18.2,29.99,South,174,0.0,0.0,76,0.00,,---,0.00,VWS V14.00,2013-01-26 04:17:00,
2013-01-25 23:22:00,24.7,18.2,29.99,South,174,0.0,0.0,76,0.00,,---,0.00,VWS V14.00,2013-01-26 04:22:00,
2013-01-25 23:27:00,24.7,18.2,29.99,South,174,0.0,0.0,76,0.00,,---,0.00,VWS V14.00,2013-01-26 04:27:00,
2013-01-25 23:32:00,24.7,18.2,29.99,South,174,0.0,0.0,76,0.00,,---,0.00,VWS V14.00,2013-01-26 04:32:00,
2013-01-25 23:37:00,24.7,18.2,29.99,South,174,0.0,0.0,76,0.00,,---,0.00,VWS V14.00,2013-01-26 04:37:00,
2013-01-25 23:42:00,24.8,18.3,29.99,South,174,0.0,0.0,76,0.00,,---,0.00,VWS V14.00,2013-01-26 04:42:00,
2013-01-25 23:47:00,24.8,18.3,29.99,South,174,0.0,0.0,76,0.00,,---,0.00,VWS V14.00,2013-01-26 04:47:00,
2013-01-25 23:52:00,24.8,18.3,29.99,South,174,0.0,0.0,76,0.00,,---,0.00,VWS V14.00,2013-01-26 04:52:00,
2013-01-25 23:57:00,24.8,18.6,29.99,South,174,0.0,0.0,77,0.00,,---,0.00,VWS V14.00,2013-01-26 04:57:00,